User: anonymous   Login
Location: Peebles
(55.6412°N, 3.1714°W)
Time: 23:50:06
(UTC+00:00)
Language:

Cosmos 1937 Rocket - Orbit

View from above orbital plane
View from above orbital plane
View from above satellite
View from above satellite

Ground track
Ground track

The orbit data is extracted from the following two-line orbital elements,

1 19039U 88029B   21331.36577389  .00000011  00000-0  12170-4 0  9994
2 19039  74.0465 188.1282 0024425 316.4304  43.4921 14.38543694764050
Epoch (UTC): 27 November 2021 08:46:42
Eccentricity: 0.0024425
inclination: 74.0465°
perigee height: 746 km
apogee height: 781 km
right ascension of ascending node: 188.1282°
argument of perigee: 316.4304°
revolutions per day: 14.38543694
mean anomaly at epoch: 43.4921°
orbit number at epoch: 76405

The dashed part of the orbit path shows where the satellite is in the earth's shadow,  

DLR